EHI
0 0 0 0 0 0 0 0 0 0 0 0 0 0 0 0 0 0 0 0 0 0 0 0 0 0 0 0 0 0 0 0 0 0 0 0 0 0 0 0 0 0 0
0 0 0 0 0 0 0 0 0 0 0 0 0 0 0 0 0 0 0 0 0 0 0 0 0 0 0 0 0 0 0 0 0 0 0 0 0 0 0 0 0 0 0
0 0 0 0 0 0 0 0 0 0 0 0 0 0 0 0 0 0 0 0 0 0 0 0 0 0 0 0 0 0 0 0 0 0 0 0 0 0 0 0 0 0 0
0 0 0 0 0 0 0 0 0 0 0 0 0 0 0 0 0 0 0 0 0 0 0 0 0 0 0 0 0 0 0 0 0 0 0 0 0 0 0 0 0 0 0
0 0 0 0 0 0 0 0 0 0 0 0 0 0 0 0 0 0 0 0 0 0 0 0 0 0 0 0 0 0 0 0 0 0 0 0 0 0 0 0 0 0 0
0 0 0 0 0 0 0 0 0 0 0 0 0 0 0 0 0 0 0 0 0 0 0 0 0 0 0 0 0 0 0 0 0 0 0 0 0 0 0 0 0 0 0
0 0 0 0 0 0 0 0 0 0 0 0 0 0 0 0 0 0 0 0 0 0 0 0 0 0 0 0 0 0 0 0 0 0 0 0 0 0 0 0 0 0 0
0 0 0 0 0 0 0 0 0 0 0 0 0 0 0 0 0 0 0 0 0 0 0 0 0 0 0 0 0 0 0 0 0 0 0 0 0 0 0 0 0 0 0
0 0 0 0 0 0 0 0 0 0 0 0 0 0 0 0 0 0 0 0 0 0 0 0 0 0 0 0 0 0 0 0 0 0 0 0 0 0 0 0 0 0 0
0 0 0 0 0 0 0 0 0 0 0 0 0 0 0 0 0 0 0 0 0 0 0 0 0 0 0 0 0 0 0 0 0 0 0 0 0 0 0 0 0 0 0
0 0 0 0 0 0 0 0 0 0 0 0 0 0 0 0 0 0 0 0 0 0 0 0 0 0 0 0 0 0 0 0 0 0 0 0 0 0 0 0 0 0 0
0 0 0 0 0 0 0 0 0 0 0 0 0 0 0 0 0 0 0 0 0 0 0 0 0 0 0 0 0 0 0 0 0 0 0 0 0 0 0 0 0 0 0
0 0 0 0 0 0 0 0 0 0 0 0 0 0 0 0 0 0 0 0 0 0 0 0 0 0 0 0 0 0 0 0 0 0 0 0 0 0 0 0 0 0 0
0 0 0 0 0 0 0 0 0 0 0 0 0 0 0 0 0 0 0 0 0 0 0 0 0 0 0 0 0 0 0 0 0 0 0 0 0 0 0 0 0 0 0
0 0 0 0 0 0 0 0 0 0 0 0 0 0 0 0 0 0 0 0 0 0 0 0 0 0 0 0 0 0 0 0 0 0 0 0 0 0 0 0 0 0 0
0 0 0 0 0 0 0 0 0 0 0 0 0 0 0 0 0 0 0 0 0 0 0 0 0 0 0 0 0 0 0 0 0 0 0 0 0 0 0 0 0 0 0
0 0 0 0 0 0 0 0 0 0 0 0 0 0 0 0 0 0 0 0 0 0 0 0 0 0 0 0 0 0 0 0 0 0 0 0 0 0 0 0 0 0 0
0 0 0 0 0 0 0 0 0 0 0 0 0 0 0 0 0 0 0 0 0 0 0 0 0 0 0 0 0 0 0 0 0 0 0 0 0 0 0 0 0 0 0
0 0 0 0 0 0 0 0 0 0 0 0 0 0 0 0 0 0 0 0 0 0 0 0 0 0 0 0 0 0 0 0 0 0 0 0 0 0 0 0 0 0 0
0 0 0 0 0 0 0 0 0 0 0 0 0 0 0 0 0 0 0 0 0 0 0 0 0 0 0 0 0 0 0 0 0 0 0 0 0 0 0 0 0 0 0
0 0 0 0 0 0 0 0 0 0 0 0 0 0 0 0 0 0 0 0 0 0 0 0 0 0 0 0 0 0 0 0 0 0 0 0 0 0 0 0 0 0 0
0 0 0 0 0 0 0 0 0 0 0 0 0 0 0 0 0 0 0 0 0 0 0 0 0 0 0 0 0 0 0 0 0 0 0 0 0 0 0 0 0 0 0
0 0 0 0 0 0 0 0 0 0 0 0 0 0 0 0 0 0 0 0 0 0 0 0 0 0 0 0 0 0 0 0 0 0 0 0 0 0 0 0 0 0 0
0 0 0 0 0 0 0 0 0 0 0 0 0 0 0 0 0 0 0 0 0 0 0 0 0 0 0 0 0 0 0 0 0 0 0 0 0 0 0 0 0 0 0
0 0 0 0 0 0 0 0 0 0 0 0 0 0 0 0 0 0 0 0 0 0 0 0 0 0 0 0 0 0 0 0 0 0 0 0 0 0 0 0 0 0 0
0 0 0 0 0 0 0 0 0 0 0 0 0 0 0 0 0 0 0 0 0 0 0 0 0 0 0 0 0 0 0 0 0 0 0 0 0 0 0 0 0 0 0
Wind_Speed
12 11 10 9 8 8 7 7 6 6 6 6 7 7 8 8 8 9 10 10 11 12 11 12 13 13 11 10 10 10 11 12 16 15 13 13 16 16 15 15 15 15 14
11 11 10 9 8 8 8 7 7 7 6 7 7 8 8 9 9 10 11 11 12 13 13 14 14 11 14 12 11 12 12 13 14 18 15 13 16 16 16 16 14 13 14
11 10 10 9 9 9 8 7 7 7 7 7 7 8 9 9 10 11 12 12 13 14 14 14 15 14 15 13 13 13 12 12 13 14 16 13 13 13 15 15 16 14 14
10 10 10 10 9 8 7 7 7 7 7 8 8 9 9 10 10 11 12 13 14 14 14 15 15 15 16 15 13 14 14 14 14 14 14 13 13 14 13 12 12 11 11
10 10 10 9 8 7 7 7 6 7 7 8 9 9 10 10 9 11 12 13 15 15 15 15 16 17 20 17 14 14 14 13 12 13 13 13 13 12 11 11 12 12 12
10 10 8 8 7 7 7 6 7 7 8 8 9 10 11 9 13 16 16 14 15 15 16 16 16 17 19 22 24 24 21 17 15 14 13 14 16 14 12 11 12 12 12
9 8 8 7 7 7 6 6 7 8 8 9 10 11 12 13 15 18 19 16 16 16 16 15 13 13 18 16 18 22 22 24 24 19 17 17 17 15 15 15 13 13 13
7 7 7 7 6 6 6 7 8 7 8 9 10 12 12 13 16 18 19 17 16 16 16 16 16 16 15 16 16 16 17 17 19 16 15 17 17 16 15 15 15 14 13
7 7 6 6 6 6 7 7 7 8 9 10 10 12 13 14 16 18 19 14 13 16 16 15 16 16 20 22 18 17 17 16 18 22 24 23 26 26 20 12 10 10 11
6 5 5 5 6 6 7 7 7 8 9 10 11 12 14 15 16 18 19 12 13 13 13 14 18 19 21 22 17 16 17 16 15 15 17 18 17 17 20 13 9 10 10
3 4 4 5 6 6 7 7 7 8 9 11 12 12 13 15 16 18 19 12 12 13 12 11 11 19 22 23 22 16 18 18 14 13 12 12 11 10 10 9 8 8 10
3 4 4 5 5 5 7 7 8 9 10 11 12 12 11 12 14 16 19 19 18 15 13 12 13 21 23 25 20 19 23 20 11 10 10 10 9 9 8 8 8 9 10
3 4 5 5 6 6 7 8 8 8 8 9 10 11 11 10 11 17 19 20 21 16 13 19 23 25 24 19 19 21 18 11 9 10 10 10 9 8 8 7 8 8 10
4 5 5 6 6 7 6 7 7 8 9 9 10 11 11 11 10 9 10 11 15 15 13 17 23 23 19 18 16 12 9 8 9 9 10 9 8 8 8 7 7 7 7
5 5 6 6 7 7 8 8 9 10 10 11 10 11 12 12 13 19 16 13 12 12 14 12 11 10 10 9 8 8 8 8 8 8 8 8 8 8 8 7 7 7 7
5 6 5 6 6 7 8 9 11 14 18 20 21 19 16 20 24 25 25 25 25 24 18 12 11 10 9 8 8 8 8 8 8 8 8 8 8 8 8 7 7 7 8
6 6 6 6 7 8 8 9 11 11 15 18 20 21 21 23 25 25 25 25 25 23 14 11 10 10 9 9 9 9 9 8 7 8 8 8 8 8 8 8 7 7 7
7 7 8 7 7 8 9 9 10 11 12 11 13 18 20 22 23 23 24 21 14 12 10 10 10 10 9 9 9 9 8 8 8 8 8 8 8 8 8 8 7 8 7
7 6 6 7 8 9 9 10 10 12 12 12 12 12 16 18 20 20 19 12 11 11 10 10 10 10 10 9 9 9 9 8 9 8 8 9 8 8 8 8 8 10 9
7 9 10 9 9 9 9 10 10 11 12 12 12 12 11 12 11 12 11 10 10 11 10 10 10 10 10 9 9 9 9 9 9 8 8 8 8 8 8 9 8 7 7
7 8 11 10 9 9 10 10 11 11 11 12 12 13 18 13 12 13 11 11 10 11 10 10 10 10 9 9 9 9 11 9 9 8 8 8 8 8 7 7 8 7 7
7 8 8 9 9 9 10 10 11 11 13 14 13 13 19 14 12 12 11 11 11 10 10 10 10 9 9 9 9 9 10 10 9 9 8 8 8 8 8 8 7 7 7
8 9 9 10 10 13 13 11 11 12 13 13 13 12 12 11 12 12 12 12 11 11 10 10 10 10 10 9 9 9 10 10 9 9 9 9 8 8 8 8 9 9 8
9 10 10 10 10 11 11 12 12 12 13 13 13 13 12 12 12 13 13 12 11 11 11 10 11 13 16 13 10 10 10 11 11 9 12 11 10 9 9 9 9 10 9
9 10 10 11 11 11 12 12 12 13 13 13 12 12 13 13 13 13 12 12 13 12 14 13 11 12 15 16 14 12 16 19 18 13 11 10 12 12 11 11 10 9 9
10 10 10 10 11 11 11 12 12 13 13 13 13 13 13 13 13 13 12 12 12 12 13 12 14 15 17 15 17 19 21 22 22 22 14 11 12 11 11 10 12 11 10
Wind_Direction
196 195 194 196 196 198 202 206 209 215 220 229 238 247 254 259 262 265 267 273 274 276 274 273 273 274 274 271 271 269 269 270 277 284 285 288 288 286 285 284 284 285 284
195 197 198 195 195 202 207 209 212 220 227 236 244 252 257 261 265 269 274 274 275 276 277 276 275 275 273 272 271 270 271 271 276 284 288 289 288 289 286 285 284 282 281
194 197 198 198 200 207 210 212 217 226 234 239 246 253 258 263 268 271 275 276 276 276 277 276 276 276 275 273 273 273 273 274 274 279 284 285 285 284 285 282 281 279 281
194 199 202 203 205 209 212 215 221 229 238 245 251 257 261 266 268 272 274 276 277 276 275 274 273 273 274 276 276 275 276 276 275 275 279 281 281 282 280 282 282 281 280
197 202 206 205 206 209 213 219 227 235 243 250 256 259 263 266 266 270 275 277 278 279 277 274 272 271 272 273 273 275 276 274 275 275 277 280 280 282 281 282 282 284 281
200 205 203 203 205 211 218 225 234 241 247 253 257 263 266 265 268 272 277 279 279 279 279 278 277 275 274 274 274 275 276 278 279 278 279 279 282 283 285 283 281 282 284
203 205 202 204 208 215 222 232 240 248 254 258 262 266 269 271 272 276 278 281 281 279 279 279 278 276 279 277 279 280 278 276 274 275 277 278 281 283 284 282 276 277 278
203 205 204 206 213 219 229 240 249 255 259 263 268 271 274 275 276 280 283 281 279 278 277 277 278 279 278 280 280 278 276 275 274 273 271 274 277 279 276 276 278 278 276
206 209 209 212 220 228 239 249 258 262 265 268 272 274 276 279 278 281 284 284 279 279 278 275 275 276 278 280 280 279 279 278 278 276 275 277 278 280 279 279 276 276 279
210 215 218 224 232 240 249 258 264 266 270 274 273 274 276 279 281 282 283 280 281 281 280 277 275 276 279 281 281 281 281 282 284 285 283 281 280 280 281 275 274 277 281
213 223 230 236 244 252 259 263 268 271 273 274 277 277 277 278 281 280 281 279 281 284 283 281 279 281 282 283 283 281 280 286 287 287 286 282 277 271 268 266 263 265 272
218 234 244 251 256 256 262 268 271 273 275 278 280 282 280 278 277 279 280 280 283 284 283 282 282 284 284 284 284 281 286 291 286 284 282 279 277 275 274 273 268 263 262
235 249 258 263 264 263 266 271 274 273 274 278 281 283 285 284 282 281 284 286 286 284 282 284 287 288 288 287 283 284 288 285 283 280 279 280 281 283 284 281 273 263 261
252 263 267 269 271 271 268 266 269 271 274 277 280 283 286 286 286 288 287 289 288 286 285 286 288 286 283 280 281 281 277 275 276 277 281 283 285 283 278 277 275 274 272
262 268 271 270 272 274 272 268 269 268 270 276 279 281 286 287 288 292 294 292 290 287 291 286 281 281 275 271 273 274 273 274 275 275 276 278 279 279 278 277 275 272 270
266 272 274 275 275 276 279 280 265 264 275 274 275 278 281 282 291 294 295 295 296 296 294 286 283 283 280 279 279 279 277 276 276 275 275 275 277 278 279 276 273 269 269
266 274 277 276 277 280 282 284 288 284 276 276 278 281 282 288 292 295 297 298 296 295 288 282 282 282 281 279 277 277 277 277 277 275 274 273 273 273 275 274 271 269 268
272 274 275 277 280 281 282 283 285 290 293 291 286 286 288 291 293 296 298 299 292 287 279 280 281 281 280 279 277 277 277 276 273 272 272 270 269 270 271 272 270 269 271
278 277 279 282 281 281 282 283 284 286 288 291 293 292 292 295 296 294 295 287 285 285 283 281 280 280 279 276 275 274 274 274 273 272 271 270 268 266 267 270 272 271 268
278 278 283 285 285 284 284 284 285 287 288 289 290 293 298 297 293 292 289 284 282 282 282 281 281 279 278 275 273 271 271 271 270 266 267 267 265 263 264 266 267 269 266
284 283 284 284 282 283 284 284 285 286 287 288 289 292 295 295 291 290 288 285 283 282 282 282 281 281 277 275 271 268 267 268 267 266 266 265 263 262 262 262 262 262 263
284 284 284 285 285 285 286 286 287 287 288 289 291 293 295 292 287 286 285 285 284 282 281 281 280 278 276 275 272 270 268 267 266 263 263 263 262 261 260 259 258 258 257
286 285 286 285 286 288 289 287 286 286 288 289 291 292 291 288 287 286 286 287 285 283 281 278 277 275 273 271 269 267 266 266 266 265 263 263 261 260 258 256 255 255 253
286 286 287 288 289 288 288 288 288 288 289 290 290 290 289 288 287 286 286 285 284 283 281 278 276 277 277 276 271 266 264 264 265 261 258 257 257 258 256 252 251 250 250
289 289 289 290 289 289 289 289 288 288 288 288 288 288 287 287 286 286 285 284 284 282 281 280 276 276 276 274 272 270 269 270 268 265 255 250 251 251 251 249 247 248 243
291 291 290 289 288 288 288 288 288 289 288 287 286 286 286 286 285 285 285 284 284 284 283 280 276 275 276 275 273 272 272 271 271 268 261 253 248 247 245 241 241 240 238